COSMOS 890

Satellite information

Favourite Embed

Satellite Type and Status

PAYLOADIN ORBIT

Key statistics

Satellite COSMOS 890 at a glance.

Uptime

17763

Days in orbit

Revolutions

≈ 13.7

Per day

Orbit

LEO

Low Earth Orbit

Inclination

83.0

Latest

Satellite identification and parameters

Extended collection of information and parameters for COSMOS 890.

Object identification

Identified? True

Debris? False

Object name: COSMOS 890

International designator: 1977-004A

Object number (NORAD): 9737

Object ID (CCSDS): 9737

Country: COMMONWEALTH OF INDEPENDENT STATES (CIS)

Current information (Y/N): Y

RCS size: LARGE

Orbital parameters

Period: 104.964 minutes

Inclination: 82.9636 deg

SMA: 7370.913 km

Apoapsis: 1011.795 km

Periapsis: 973.762 km

RAAN: 12.5633 deg

Eccentricy: 0.00257992

Argument of periapsis: 352.5621 deg

Mean anomaly: 121.4363 deg

Mean motion: 13.71894755 rev/day

Mean motion (dot): 0.00000056 rev/day2

B* drag term: 0.000044901663 1/REarth

Two-line elements (TLE)

Creation date: Sept. 8, 2025, 3:16 a.m.

Reference frame: TEME

Reference center: EARTH

Epoch: Sept. 7, 2025, 8:46 p.m. UTC

TLE line 0: 0 COSMOS 890

TLE line 1: 1 09737U 77004A 25250.86540559 .00000056 00000-0 44902-4 0 9994

TLE line 2: 2 09737 82.9636 12.5633 0025799 352.5621 121.4363 13.71894755433626

Live tracking on map

Real-time ground track for satellite COSMOS 890.

In-orbit conjunctions

A list of the most updated potential collisions computed for object COSMOS 890.

Target Orbit TCA Probability of collision Miss distance Type
NIMBUS 2 DEB SSO 2025-08-30 01:41:45 0.0001006052 625.0 (m) DEBRIS
COSMOS 839 DEB MEO 2024-09-05 01:08:16 0.0003062027 486.0 (m) DEBRIS

Associated space launch

The first soviet navigation system called Tsiklon consisted of Zaliv satellites in low earth orbit.

COSMOS 890 was lifted into orbit during the mission ‘Kosmos-3M | Zaliv 23’, on board a Kosmos-3M space rocket.

The launch took place on Jan. 20, 1977, 8:05 p.m. from 132/1 (132L).

For more information about the launch, click the button.

Launch to space Kosmos-3M | Zaliv 23
Kosmos-3M | Zaliv 23

Agency: N/A

Status: Launch Successful

Launch date: Jan. 20, 1977, 8:05 p.m. UTC

Rocket: Kosmos-3M

Launch pad: 132/1 (132L)

Location: Plesetsk Cosmodrome, Russian Federation

...

Latest news about this satellite

There are no fresh news available about this satellite. Check back as we update our databases every day.


Newsletter sign-up

Weekly statistics, charts and insights to help you stay on top of the space industry.